Location: Ar Ranvel
(48.3000°N, 4.8833°W)
Time: 13:52:28
(UTC+00:00)

ATLAS CENTAUR R/B - Pass Details

Date: 16 June 2021
Orbit: 472 x 671 km, 64.6° (Epoch: 13 June)

Event Time Altitude Azimuth Distance (km) Brightness Sun altitude
Rises 23:14:44 0° 315° (NW) 2,795 6.0 -16.8°
Reaches altitude 10° 23:17:02 10° 307° (NW) 1,926 4.8 -16.9°
Maximum altitude 23:21:02 36° 240° (WSW) 976 2.4 -17.1°
Enters shadow 23:22:33 28° 200° (SSW) 1,175 2.5 -17.2°
